| time (UTC) | temp F | wind direction | speed knots | gust knots | rain 1hr in | rain 24hr in | rain mn in | humidity % | barometer mb |
| 20260506115020 | 57 | 231 | 0.0 | 5.2 | 0.06 | 0.28 | 0.25 | 89 | 1013.5 |
| 20260506114518 | 58 | 115 | 1.7 | 6.1 | 0.13 | 0.28 | 0.25 | 90 | 1013.5 |
| 20260506114018 | 58 | 68 | 1.7 | 6.1 | 0.13 | 0.28 | 0.25 | 91 | 1013.3 |
| 20260506113518 | 58 | 256 | 1.7 | 3.5 | 0.13 | 0.28 | 0.25 | 93 | 1013.3 |
| 20260506113029 | 57 | 312 | 0.9 | 1.7 | 0.13 | 0.28 | 0.25 | 93 | 1013.4 |
| 20260506112518 | 55 | 247 | 0.0 | 2.6 | 0.13 | 0.28 | 0.25 | 92 | 1013.5 |
| 20260506112017 | 56 | 234 | 0.9 | 2.6 | 0.13 | 0.28 | 0.24 | 91 | 1013.4 |
| 20260506111517 | 56 | 297 | 0.9 | 1.7 | 0.13 | 0.28 | 0.24 | 91 | 1013.5 |
| 20260506111017 | 56 | 149 | 0.0 | 5.2 | 0.13 | 0.28 | 0.24 | 91 | 1013.5 |
| 20260506110517 | 56 | 252 | 0.9 | 5.2 | 0.11 | 0.26 | 0.23 | 91 | 1013.5 |
| 20260506110018 | 56 | 86 | 0.0 | 3.5 | 0.11 | 0.25 | 0.22 | 90 | 1013.6 |
| 20260506105517 | 56 | 113 | 0.0 | 5.2 | 0.10 | 0.46 | 0.21 | 89 | 1013.5 |
| 20260506105017 | 57 | 218 | 1.7 | 4.3 | 0.08 | 0.43 | 0.19 | 88 | 1013.5 |
| 20260506104517 | 58 | 160 | 0.9 | 7.0 | 0.01 | 0.36 | 0.12 | 89 | 1013.3 |
| 20260506104017 | 58 | 270 | 1.7 | 8.7 | 0.02 | 0.36 | 0.12 | 89 | 1013.2 |
| 20260506103517 | 58 | 354 | 1.7 | 6.1 | 0.02 | 0.36 | 0.12 | 92 | 1013.3 |
| 20260506103018 | 58 | 317 | 1.7 | 3.5 | 0.02 | 0.36 | 0.12 | 92 | 1013.2 |
| 20260506102517 | 57 | 245 | 0.9 | 4.3 | 0.03 | 0.36 | 0.12 | 92 | 1013.3 |
| 20260506102019 | 56 | 234 | 0.0 | 5.2 | 0.04 | 0.36 | 0.12 | 92 | 1013.3 |
| 20260506101518 | 56 | 248 | 0.9 | 4.3 | 0.04 | 0.36 | 0.12 | 92 | 1013.3 |
| 20260506101017 | 56 | 240 | 0.9 | 3.5 | 0.05 | 0.36 | 0.12 | 91 | 1013.3 |
| 20260506100518 | 56 | 96 | 0.9 | 2.6 | 0.05 | 0.36 | 0.12 | 91 | 1013.2 |
| 20260506100018 | 56 | 238 | 0.9 | 1.7 | 0.04 | 0.35 | 0.11 | 91 | 1013.3 |
| 20260506095517 | 56 | 252 | 0.0 | 1.7 | 0.04 | 0.46 | 0.11 | 91 | 1013.2 |
| 20260506095018 | 56 | 212 | 0.9 | 1.7 | 0.04 | 0.46 | 0.11 | 91 | 1013.2 |
| 20260506094517 | 56 | 119 | 0.0 | 0.9 | 0.04 | 0.46 | 0.11 | 90 | 1013.1 |
| 20260506094028 | 56 | 243 | 0.0 | 1.7 | 0.03 | 0.45 | 0.10 | 90 | 1013.1 |
| 20260506093529 | 56 | 146 | 0.0 | 1.7 | 0.02 | 0.44 | 0.09 | 90 | 1013.0 |
| 20260506093017 | 56 | 82 | 0.0 | 2.6 | 0.02 | 0.43 | 0.09 | 89 | 1013.1 |
| 20260506092517 | 56 | 243 | 0.9 | 5.2 | 0.02 | 0.43 | 0.09 | 89 | 1013.0 |
| 20260506092029 | 57 | 74 | 1.7 | 5.2 | 0.01 | 0.43 | 0.08 | 88 | 1012.9 |
| 20260506091519 | 57 | 79 | 1.7 | 6.1 | 0.01 | 0.42 | 0.07 | 87 | 1012.8 |
| 20260506091029 | 57 | 203 | 0.9 | 7.8 | 0.01 | 0.42 | 0.07 | 88 | 1012.7 |
| 20260506090518 | 57 | 288 | 3.5 | 7.8 | 0.01 | 0.42 | 0.07 | 88 | 1012.7 |
| 20260506090017 | 57 | 81 | 1.7 | 4.3 | 0.02 | 0.42 | 0.07 | 89 | 1012.7 |
| 20260506085517 | 57 | 94 | 0.9 | 7.0 | 0.02 | 0.44 | 0.07 | 90 | 1012.8 |
| 20260506085017 | 57 | 70 | 2.6 | 7.0 | 0.02 | 0.44 | 0.07 | 90 | 1012.6 |
| 20260506084529 | 57 | 144 | 1.7 | 4.3 | 0.02 | 0.44 | 0.07 | 90 | 1012.6 |
| 20260506084029 | 56 | 110 | 0.0 | 4.3 | 0.02 | 0.44 | 0.07 | 91 | 1012.6 |
| 20260506083529 | 56 | 179 | 1.7 | 4.3 | 0.02 | 0.44 | 0.07 | 91 | 1012.5 |
| 20260506083018 | 56 | 259 | 0.9 | 3.5 | 0.02 | 0.44 | 0.07 | 90 | 1012.5 |
| 20260506082529 | 56 | 284 | 0.0 | 4.3 | 0.02 | 0.44 | 0.07 | 89 | 1012.5 |
| 20260506082018 | 56 | 208 | 0.9 | 6.1 | 0.02 | 0.44 | 0.07 | 88 | 1012.5 |
| 20260506081518 | 57 | 160 | 2.6 | 6.1 | 0.01 | 0.43 | 0.06 | 88 | 1012.5 |
| 20260506081018 | 57 | 341 | 0.9 | 3.5 | 0.01 | 0.43 | 0.06 | 87 | 1012.3 |
| 20260506080518 | 57 | 7 | 0.9 | 6.1 | 0.01 | 0.43 | 0.06 | 87 | 1012.4 |
| 20260506073519 | 57 | 135 | 0.9 | 4.3 | 0.00 | 0.43 | 0.06 | 84 | 1012.2 |
| 20260506073029 | 58 | 357 | 1.7 | 7.0 | 0.00 | 0.43 | 0.06 | 83 | 1012.2 |
| 20260506072518 | 58 | 219 | 1.7 | 7.8 | 0.00 | 0.43 | 0.06 | 83 | 1012.2 |
| 20260506072018 | 58 | 297 | 1.7 | 7.8 | 0.00 | 0.43 | 0.06 | 81 | 1012.1 |
| 20260506071530 | 58 | 302 | 1.7 | 8.7 | 0.01 | 0.43 | 0.06 | 84 | 1012.1 |
| 20260506071019 | 57 | 140 | 0.9 | 8.7 | 0.01 | 0.43 | 0.06 | 85 | 1012.1 |
| 20260506070518 | 56 | 239 | 0.9 | 6.1 | 0.01 | 0.43 | 0.06 | 86 | 1012.1 |
| 20260506062018 | 54 | 256 | 2.6 | 7.0 | 0.01 | 0.43 | 0.06 | 90 | 1012.0 |
| 20260506061519 | 54 | 214 | 0.0 | 3.5 | 0.00 | 0.42 | 0.05 | 89 | 1011.9 |
| 20260506061018 | 54 | 236 | 0.0 | 3.5 | 0.00 | 0.42 | 0.05 | 89 | 1011.9 |
| 20260506060529 | 54 | 207 | 0.0 | 4.3 | 0.00 | 0.42 | 0.05 | 89 | 1011.9 |
| 20260506051018 | 52 | 230 | 0.9 | 4.3 | 0.00 | 0.43 | 0.05 | 94 | 1011.5 |
| 20260506050540 | 51 | 191 | 0.9 | 3.5 | 0.00 | 0.43 | 0.05 | 95 | 1011.5 |
| 20260506045018 | 51 | 129 | 0.0 | 1.7 | 0.00 | 0.70 | 0.05 | 95 | 1011.4 |
| 20260506044529 | 51 | 180 | 0.9 | 1.7 | 0.00 | 0.70 | 0.05 | 95 | 1011.5 |
| 20260506044030 | 51 | 151 | 0.9 | 2.6 | 0.00 | 0.70 | 0.05 | 95 | 1011.5 |
| 20260506043519 | 51 | 248 | 0.0 | 5.2 | 0.02 | 0.70 | 0.05 | 95 | 1011.6 |
| 20260506043029 | 50 | 248 | 0.0 | 5.2 | 0.02 | 0.70 | 0.05 | 95 | 1011.5 |
| 20260506042519 | 50 | 342 | 0.0 | 0.9 | 0.02 | 0.70 | 0.05 | 94 | 1011.5 |
| 20260506042019 | 50 | 278 | 0.0 | 0.9 | 0.02 | 0.70 | 0.05 | 94 | 1011.6 |
| 20260506041531 | 50 | 278 | 0.0 | 0.9 | 0.02 | 0.70 | 0.05 | 94 | 1011.6 |
| 20260506041019 | 50 | 278 | 0.0 | 0.9 | 0.02 | 0.70 | 0.05 | 94 | 1011.7 |
| 20260506040518 | 50 | 278 | 0.0 | 0.0 | 0.02 | 0.70 | 0.05 | 94 | 1011.7 |
| 20260506040018 | 50 | 278 | 0.0 | 0.9 | 0.02 | 0.70 | 0.05 | 94 | 1011.6 |
| 20260506035518 | 51 | 278 | 0.0 | 0.9 | 0.02 | 0.78 | 0.05 | 94 | 1011.7 |
| 20260506035019 | 51 | 140 | 0.0 | 0.9 | 0.02 | 0.78 | 0.05 | 94 | 1011.8 |
| 20260506034518 | 51 | 84 | 0.0 | 0.9 | 0.02 | 0.78 | 0.05 | 94 | 1012.0 |
| 20260506034020 | 51 | 84 | 0.0 | 0.9 | 0.02 | 0.78 | 0.05 | 94 | 1011.9 |
| 20260506033519 | 51 | 84 | 0.0 | 0.9 | 0.03 | 0.76 | 0.03 | 93 | 1011.9 |
| 20260506033019 | 51 | 84 | 0.0 | 0.9 | 0.03 | 0.76 | 0.03 | 93 | 1011.9 |
| 20260506032528 | 51 | 84 | 0.0 | 2.6 | 0.03 | 0.76 | 0.03 | 93 | 1011.9 |
| 20260506032030 | 51 | 79 | 0.9 | 3.5 | 0.03 | 0.76 | 0.03 | 93 | 1012.0 |
| 20260506031519 | 51 | 131 | 0.0 | 3.5 | 0.03 | 0.76 | 0.03 | 93 | 1012.0 |
| 20260506031019 | 51 | 326 | 0.0 | 1.7 | 0.03 | 0.76 | 0.03 | 93 | 1012.2 |
| 20260506030519 | 51 | 80 | 0.9 | 1.7 | 0.03 | 0.76 | 0.03 | 93 | 1012.1 |
| 20260506030019 | 51 | 80 | 0.0 | 1.7 | 0.02 | 0.76 | 0.02 | 93 | 1012.1 |
| 20260506025521 | 51 | 124 | 0.0 | 1.7 | 0.02 | 0.76 | 0.02 | 93 | 1012.0 |
| 20260506025018 | 52 | 116 | 0.9 | 1.7 | 0.02 | 0.76 | 0.02 | 92 | 1012.1 |
| 20260506024528 | 52 | 80 | 0.0 | 2.6 | 0.02 | 0.76 | 0.02 | 92 | 1012.2 |
| 20260506024018 | 52 | 80 | 0.9 | 2.6 | 0.02 | 0.76 | 0.02 | 92 | 1012.1 |
| 20260506023518 | 52 | 188 | 0.0 | 0.9 | 0.00 | 0.73 | 0.00 | 92 | 1012.1 |
| 20260506023018 | 52 | 188 | 0.0 | 1.7 | 0.00 | 0.73 | 0.00 | 92 | 1012.1 |
| 20260506022529 | 52 | 241 | 0.0 | 3.5 | 0.00 | 0.73 | 0.00 | 92 | 1012.1 |
| 20260506022018 | 52 | 137 | 0.9 | 3.5 | 0.00 | 0.73 | 0.00 | 92 | 1012.2 |
| 20260506021529 | 52 | 136 | 0.9 | 3.5 | 0.00 | 0.73 | 0.00 | 92 | 1012.3 |
| 20260506021018 | 52 | 311 | 0.9 | 3.5 | 0.00 | 0.73 | 0.00 | 92 | 1012.4 |
| 20260506020518 | 52 | 259 | 0.0 | 6.1 | 0.00 | 0.73 | 0.00 | 92 | 1012.3 |
| 20260506020029 | 52 | 272 | 0.9 | 6.1 | 0.00 | 0.73 | 0.00 | 92 | 1012.2 |
| 20260506015518 | 52 | 145 | 1.7 | 6.1 | 0.00 | 0.76 | 0.00 | 93 | 1012.1 |
| 20260506015018 | 51 | 235 | 0.0 | 0.9 | 0.00 | 0.76 | 0.00 | 92 | 1012.1 |
| 20260506014518 | 51 | 248 | 0.0 | 1.7 | 0.00 | 0.76 | 0.00 | 92 | 1012.0 |
| 20260506014018 | 51 | 116 | 0.0 | 1.7 | 0.00 | 0.76 | 0.00 | 92 | 1012.0 |
| 20260506013518 | 51 | 141 | 0.0 | 2.6 | 0.00 | 0.76 | 0.00 | 92 | 1012.2 |
| 20260506013019 | 51 | 254 | 0.9 | 2.6 | 0.00 | 0.76 | 0.00 | 91 | 1012.2 |
| 20260506012518 | 51 | 234 | 0.0 | 1.7 | 0.00 | 0.76 | 0.00 | 91 | 1012.1 |
| 20260506012018 | 51 | 221 | 0.9 | 1.7 | 0.00 | 0.76 | 0.00 | 91 | 1012.2 |
| 20260506011530 | 51 | 254 | 0.0 | 1.7 | 0.00 | 0.76 | 0.00 | 91 | 1012.4 |
| 20260506011017 | 51 | 223 | 0.0 | 1.7 | 0.00 | 0.76 | 0.00 | 91 | 1012.4 |
| 20260506010519 | 51 | 163 | 0.0 | 1.7 | 0.00 | 0.76 | 0.00 | 91 | 1012.5 |
| 20260506010018 | 51 | 238 | 0.0 | 0.9 | 0.00 | 0.76 | 0.00 | 91 | 1012.5 |
| 20260506005518 | 52 | 151 | 0.0 | 0.0 | 0.00 | 1.01 | 0.00 | 91 | 1012.6 |
| 20260506005018 | 52 | 151 | 0.0 | 0.0 | 0.00 | 1.01 | 0.00 | 91 | 1012.6 |
| 20260506004018 | 52 | 151 | 0.0 | 1.7 | 0.00 | 1.01 | 0.00 | 90 | 1012.8 |
| 20260506003518 | 52 | 192 | 0.0 | 0.9 | 0.00 | 1.01 | 0.00 | 90 | 1012.8 |
| 20260506003018 | 52 | 243 | 0.0 | 1.7 | 0.00 | 1.01 | 0.00 | 90 | 1012.8 |
| 20260506002518 | 52 | 169 | 0.0 | 3.5 | 0.00 | 1.01 | 0.00 | 91 | 1012.7 |
| 20260506002018 | 52 | 245 | 1.7 | 3.5 | 0.00 | 1.01 | 0.00 | 92 | 1012.8 |
| 20260506001519 | 52 | 191 | 0.9 | 1.7 | 0.00 | 1.01 | 0.00 | 93 | 1012.8 |
| 20260506001018 | 52 | 164 | 0.0 | 3.5 | 0.00 | 1.01 | 0.00 | 93 | 1012.8 |
| 20260506000518 | 52 | 241 | 0.9 | 3.5 | 0.00 | 1.01 | 0.00 | 94 | 1012.9 |
| 20260506000029 | 52 | 276 | 0.0 | 0.9 | 0.00 | 1.01 | 0.00 | 94 | 1012.8 |
| 20260505235519 | 51 | 283 | 0.0 | 0.9 | 0.00 | 1.06 | 0.00 | 94 | 1013.0 |
| 20260505235018 | 51 | 148 | 0.0 | 0.9 | 0.00 | 1.06 | 0.00 | 94 | 1013.0 |
| 20260505234518 | 51 | 148 | 0.0 | 1.7 | 0.00 | 1.06 | 0.00 | 94 | 1013.1 |
| 20260505234030 | 51 | 238 | 0.9 | 1.7 | 0.00 | 1.06 | 0.00 | 94 | 1013.2 |
| 20260505233518 | 51 | 220 | 0.0 | 0.9 | 0.00 | 1.06 | 0.00 | 94 | 1013.3 |
| 20260505233018 | 51 | 200 | 0.0 | 0.9 | 0.00 | 1.06 | 0.00 | 94 | 1013.2 |
| 20260505232518 | 51 | 252 | 0.0 | 1.7 | 0.00 | 1.06 | 0.00 | 94 | 1013.3 |
| 20260505232018 | 51 | 293 | 0.9 | 1.7 | 0.00 | 1.06 | 0.00 | 93 | 1013.3 |
| 20260505231531 | 51 | 231 | 0.0 | 3.5 | 0.00 | 1.06 | 0.00 | 93 | 1013.3 |
| 20260505231018 | 51 | 274 | 0.0 | 3.5 | 0.00 | 1.06 | 0.00 | 94 | 1013.3 |
| 20260505230519 | 51 | 152 | 0.0 | 0.9 | 0.00 | 1.06 | 0.00 | 93 | 1013.3 |
| 20260505230018 | 51 | 152 | 0.0 | 0.9 | 0.00 | 1.06 | 0.00 | 93 | 1013.3 |
| 20260505225518 | 51 | 82 | 0.0 | 0.9 | 0.00 | 1.06 | 0.00 | 93 | 1013.3 |
| 20260505225019 | 51 | 82 | 0.0 | 0.9 | 0.00 | 1.06 | 0.00 | 93 | 1013.2 |
| 20260505224530 | 51 | 82 | 0.0 | 0.9 | 0.01 | 1.06 | 0.00 | 93 | 1013.2 |
| 20260505224031 | 51 | 82 | 0.0 | 0.9 | 0.01 | 1.06 | 0.00 | 93 | 1013.3 |
| 20260505223530 | 51 | 82 | 0.0 | 0.0 | 0.01 | 1.06 | 0.00 | 93 | 1013.2 |
| 20260505223018 | 51 | 82 | 0.0 | 0.0 | 0.01 | 1.06 | 0.00 | 93 | 1013.2 |
| 20260505222519 | 51 | 82 | 0.0 | 0.0 | 0.01 | 1.06 | 0.00 | 92 | 1013.2 |
| 20260505222018 | 51 | 82 | 0.0 | 0.0 | 0.01 | 1.06 | 0.00 | 92 | 1013.2 |
| 20260505221530 | 51 | 82 | 0.0 | 0.9 | 0.01 | 1.06 | 0.00 | 92 | 1013.3 |
| 20260505221017 | 52 | 82 | 0.0 | 0.9 | 0.01 | 1.06 | 0.00 | 92 | 1013.4 |
| 20260505220518 | 52 | 82 | 0.0 | 0.0 | 0.01 | 1.06 | 0.00 | 92 | 1013.4 |
| 20260505220019 | 52 | 82 | 0.0 | 0.0 | 0.01 | 1.06 | 0.00 | 92 | 1013.4 |
| 20260505215519 | 52 | 82 | 0.0 | 0.0 | 0.01 | 1.06 | 1.06 | 92 | 1013.5 |
| 20260505215019 | 52 | 82 | 0.0 | 0.9 | 0.02 | 1.06 | 1.06 | 92 | 1013.5 |
| 20260505214519 | 52 | 82 | 0.0 | 0.9 | 0.01 | 1.06 | 1.06 | 92 | 1013.6 |
| 20260505214019 | 52 | 82 | 0.0 | 0.0 | 0.01 | 1.06 | 1.06 | 92 | 1013.6 |
| 20260505213518 | 52 | 82 | 0.0 | 0.0 | 0.01 | 1.06 | 1.06 | 92 | 1013.6 |
| 20260505213019 | 53 | 82 | 0.0 | 0.9 | 0.01 | 1.06 | 1.06 | 92 | 1013.5 |
| 20260505212518 | 53 | 82 | 0.0 | 1.7 | 0.01 | 1.06 | 1.06 | 92 | 1013.6 |
| 20260505212019 | 53 | 82 | 0.0 | 1.7 | 0.01 | 1.06 | 1.06 | 92 | 1013.7 |
| 20260505211530 | 53 | 110 | 0.0 | 0.0 | 0.01 | 1.06 | 1.06 | 92 | 1013.7 |
| 20260505211019 | 53 | 110 | 0.0 | 0.0 | 0.01 | 1.06 | 1.06 | 92 | 1013.7 |
| 20260505210519 | 53 | 111 | 0.0 | 0.0 | 0.01 | 1.06 | 1.06 | 92 | 1013.7 |
| 20260505210030 | 53 | 191 | 0.0 | 0.9 | 0.01 | 1.06 | 1.06 | 92 | 1013.7 |
| 20260505205519 | 53 | 191 | 0.0 | 0.9 | 0.01 | 1.06 | 1.06 | 92 | 1013.7 |
| 20260505205019 | 53 | 109 | 0.0 | 0.0 | 0.00 | 1.05 | 1.05 | 92 | 1013.7 |
| 20260505204530 | 53 | 108 | 0.0 | 0.0 | 0.00 | 1.05 | 1.05 | 92 | 1013.7 |
| 20260505204030 | 53 | 109 | 0.0 | 0.0 | 0.00 | 1.05 | 1.05 | 91 | 1013.7 |
| 20260505203519 | 53 | 108 | 0.0 | 0.0 | 0.00 | 1.05 | 1.05 | 91 | 1013.6 |
| 20260505203030 | 53 | 106 | 0.0 | 0.0 | 0.00 | 1.05 | 1.05 | 91 | 1013.6 |
| 20260505202519 | 53 | 106 | 0.0 | 0.0 | 0.00 | 1.05 | 1.05 | 91 | 1013.6 |
| 20260505202018 | 53 | 106 | 0.0 | 0.0 | 0.00 | 1.05 | 1.05 | 90 | 1013.6 |
| 20260505201520 | 53 | 106 | 0.0 | 0.0 | 0.00 | 1.05 | 1.05 | 90 | 1013.5 |
| 20260505201030 | 53 | 106 | 0.0 | 0.0 | 0.00 | 1.05 | 1.05 | 90 | 1013.5 |
| 20260505200519 | 53 | 106 | 0.0 | 0.0 | 0.00 | 1.05 | 1.05 | 89 | 1013.5 |
| 20260505200019 | 53 | 104 | 0.0 | 0.0 | 0.00 | 1.05 | 1.05 | 89 | 1013.5 |
| 20260505195519 | 53 | 104 | 0.0 | 0.0 | 0.00 | 1.05 | 1.05 | 88 | 1013.4 |
| 20260505195019 | 53 | 105 | 0.0 | 0.0 | 0.00 | 1.05 | 1.05 | 88 | 1013.4 |
| 20260505194530 | 54 | 103 | 0.0 | 0.0 | 0.00 | 1.05 | 1.05 | 87 | 1013.3 |
| 20260505194019 | 54 | 103 | 0.0 | 0.0 | 0.00 | 1.05 | 1.05 | 87 | 1013.2 |
| 20260505193519 | 54 | 103 | 0.0 | 0.0 | 0.00 | 1.05 | 1.05 | 86 | 1013.2 |
| 20260505193019 | 54 | 102 | 0.0 | 1.7 | 0.00 | 1.05 | 1.05 | 85 | 1013.1 |
| 20260505192519 | 55 | 145 | 0.0 | 4.3 | 0.00 | 1.05 | 1.05 | 85 | 1013.1 |
| 20260505192019 | 55 | 130 | 0.0 | 4.3 | 0.00 | 1.05 | 1.05 | 84 | 1013.0 |
| 20260505191520 | 55 | 162 | 0.9 | 2.6 | 0.00 | 1.05 | 1.05 | 85 | 1013.1 |
| 20260505191019 | 55 | 302 | 0.9 | 2.6 | 0.00 | 1.05 | 1.05 | 85 | 1013.0 |
| 20260505190519 | 56 | 211 | 0.0 | 4.3 | 0.00 | 1.05 | 1.05 | 85 | 1013.0 |
| 20260505190023 | 56 | 162 | 0.9 | 4.3 | 0.00 | 1.05 | 1.05 | 85 | 1013.0 |
| 20260505185519 | 56 | 276 | 0.9 | 2.6 | 0.00 | 1.05 | 1.05 | 84 | 1013.0 |
| 20260505185019 | 56 | 218 | 0.9 | 4.3 | 0.00 | 1.05 | 1.05 | 84 | 1013.0 |
| 20260505184519 | 57 | 271 | 0.9 | 4.3 | 0.00 | 1.05 | 1.05 | 83 | 1013.0 |
| 20260505184019 | 57 | 282 | 0.9 | 4.3 | 0.00 | 1.05 | 1.05 | 82 | 1013.0 |
| 20260505183518 | 57 | 155 | 0.9 | 4.3 | 0.00 | 1.05 | 1.05 | 81 | 1012.9 |
| 20260505183019 | 57 | 115 | 0.0 | 5.2 | 0.00 | 1.05 | 1.05 | 80 | 1012.8 |
| 20260505182519 | 57 | 199 | 0.9 | 5.2 | 0.00 | 1.05 | 1.05 | 79 | 1012.9 |
| 20260505182018 | 57 | 240 | 1.7 | 4.3 | 0.00 | 1.05 | 1.05 | 79 | 1012.8 |
| 20260505181519 | 57 | 256 | 0.9 | 3.5 | 0.00 | 1.05 | 1.05 | 80 | 1012.8 |
| 20260505181018 | 57 | 290 | 1.7 | 3.5 | 0.00 | 1.05 | 1.05 | 80 | 1012.9 |
| 20260505180518 | 57 | 149 | 0.9 | 5.2 | 0.00 | 1.05 | 1.05 | 80 | 1012.8 |
| 20260505180018 | 57 | 217 | 1.7 | 5.2 | 0.00 | 1.05 | 1.05 | 80 | 1012.8 |
| 20260505175530 | 57 | 289 | 0.9 | 5.2 | 0.00 | 1.05 | 1.05 | 80 | 1012.8 |
| 20260505175019 | 58 | 309 | 1.7 | 6.1 | 0.00 | 1.05 | 1.05 | 79 | 1012.9 |
| 20260505174530 | 58 | 247 | 1.7 | 6.1 | 0.00 | 1.05 | 1.05 | 79 | 1012.8 |
| 20260505174019 | 58 | 159 | 0.9 | 5.2 | 0.00 | 1.05 | 1.05 | 81 | 1012.9 |
| 20260505173519 | 58 | 218 | 0.0 | 5.2 | 0.00 | 1.05 | 1.05 | 80 | 1012.8 |
| 20260505173029 | 58 | 287 | 1.7 | 5.2 | 0.00 | 1.05 | 1.05 | 80 | 1012.8 |
| 20260505172518 | 58 | 148 | 0.0 | 4.3 | 0.00 | 1.05 | 1.05 | 79 | 1012.8 |
| 20260505172018 | 58 | 269 | 0.9 | 5.2 | 0.00 | 1.05 | 1.05 | 80 | 1012.9 |
| 20260505171518 | 58 | 271 | 1.7 | 5.2 | 0.00 | 1.05 | 1.05 | 80 | 1013.0 |
| 20260505171018 | 58 | 279 | 1.7 | 4.3 | 0.00 | 1.05 | 1.05 | 79 | 1012.9 |
| 20260505170518 | 58 | 245 | 0.9 | 4.3 | 0.00 | 1.05 | 1.05 | 78 | 1012.9 |
| 20260505170018 | 59 | 169 | 0.0 | 6.1 | 0.00 | 1.05 | 1.05 | 79 | 1012.9 |
| 20260505165518 | 59 | 257 | 2.6 | 7.0 | 0.00 | 1.05 | 1.05 | 78 | 1013.0 |
| 20260505165018 | 59 | 254 | 1.7 | 7.8 | 0.00 | 1.05 | 1.05 | 78 | 1013.1 |
| 20260505164518 | 59 | 259 | 1.7 | 7.8 | 0.00 | 1.05 | 1.05 | 78 | 1013.1 |
| 20260505164018 | 59 | 145 | 1.7 | 7.0 | 0.00 | 1.05 | 1.05 | 78 | 1013.1 |
| 20260505163519 | 59 | 274 | 0.9 | 6.1 | 0.00 | 1.05 | 1.05 | 78 | 1013.2 |
| 20260505163020 | 59 | 129 | 1.7 | 7.0 | 0.00 | 1.05 | 1.05 | 77 | 1013.2 |
| 20260505162519 | 59 | 251 | 2.6 | 8.7 | 0.00 | 1.05 | 1.05 | 76 | 1013.3 |
| 20260505162018 | 60 | 294 | 3.5 | 8.7 | 0.00 | 1.05 | 1.05 | 75 | 1013.3 |
| 20260505161521 | 61 | 290 | 2.6 | 7.8 | 0.00 | 1.05 | 1.05 | 75 | 1013.3 |
| 20260505161018 | 61 | 273 | 2.6 | 7.0 | 0.00 | 1.05 | 1.05 | 77 | 1013.3 |
| 20260505160519 | 60 | 216 | 1.7 | 9.6 | 0.00 | 1.05 | 1.05 | 77 | 1013.3 |
| 20260505153019 | 62 | 298 | 4.3 | 9.6 | 0.00 | 1.05 | 1.05 | 69 | 1013.3 |
| 20260505152519 | 63 | 266 | 1.7 | 7.8 | 0.00 | 1.05 | 1.05 | 73 | 1013.2 |
| 20260505152030 | 62 | 282 | 3.5 | 7.8 | 0.00 | 1.05 | 1.05 | 70 | 1013.2 |
| 20260505151520 | 62 | 219 | 3.5 | 8.7 | 0.00 | 1.05 | 1.05 | 72 | 1013.2 |
| 20260505151019 | 62 | 115 | 1.7 | 11.3 | 0.00 | 1.05 | 1.05 | 74 | 1013.2 |
| 20260505150530 | 61 | 306 | 4.3 | 13.0 | 0.00 | 1.05 | 1.05 | 73 | 1013.4 |
| 20260505140519 | 61 | 128 | 1.7 | 5.2 | 0.00 | 1.08 | 1.05 | 78 | 1013.2 |
| 20260505125019 | 57 | 236 | 4.3 | 7.8 | 0.00 | 1.08 | 1.05 | 90 | 1013.7 |
| 20260505124519 | 57 | 264 | 4.3 | 9.6 | 0.00 | 1.08 | 1.05 | 91 | 1013.7 |
| 20260505124019 | 56 | 264 | 1.7 | 9.6 | 0.00 | 1.08 | 1.05 | 92 | 1013.7 |
| 20260505123520 | 56 | 271 | 2.6 | 6.1 | 0.00 | 1.08 | 1.05 | 93 | 1013.8 |
| 20260505123020 | 55 | 250 | 2.6 | 4.3 | 0.00 | 1.08 | 1.05 | 94 | 1013.7 |
| 20260505122519 | 56 | 149 | 0.9 | 2.6 | 0.00 | 1.08 | 1.05 | 95 | 1013.8 |
| 20260505122031 | 55 | 142 | 0.9 | 2.6 | 0.00 | 1.08 | 1.05 | 95 | 1013.7 |
| 20260505121520 | 54 | 252 | 0.0 | 1.7 | 0.00 | 1.08 | 1.05 | 94 | 1013.9 |
| 20260505121020 | 54 | 208 | 0.0 | 1.7 | 0.00 | 1.08 | 1.05 | 94 | 1013.8 |
| 20260505120530 | 54 | 248 | 0.0 | 0.0 | 0.01 | 1.08 | 1.05 | 94 | 1013.8 |
| 20260505120019 | 54 | 154 | 0.0 | 1.7 | 0.02 | 1.08 | 1.05 | 94 | 1013.8 |
| 20260505115531 | 54 | 219 | 0.0 | 1.7 | 0.02 | 1.08 | 1.05 | 94 | 1013.9 |